,,,PA_Meas_PMT16A,,PR_Meas_QMR101_102,,RH_Meas_QMH101,,SR_Meas_QMS101,,TA_Meas_QMH101,,GenWind,,GenWind,
date,time,status,PA,status,PR,status,RH,status,SR,status,TA,status,DirAvg,status,SpdAvg,
2014-01-09, 00:00:04,VALID,1010.1,VALID,0,VALID,104,VALID,0.112112,VALID,24.1988,VALID,17,VALID,0,
2014-01-09, 00:01:04,VALID,1010.09,VALID,0,VALID,104,VALID,0.112112,VALID,24.1988,VALID,17,VALID,0,
2014-01-09, 00:02:04,VALID,1010.09,VALID,0,VALID,104,VALID,0.112112,VALID,24.1793,VALID,17,VALID,0,
2014-01-09, 00:03:04,VALID,1010.08,VALID,0,VALID,104,VALID,0,VALID,24.1617,VALID,17,VALID,0,
2014-01-09, 00:04:04,VALID,1010.05,VALID,0,VALID,104,VALID,0,VALID,24.1617,VALID,17,VALID,0,
2014-01-09, 00:05:04,VALID,1010.05,VALID,0,VALID,104,VALID,0,VALID,24.1617,VALID,17,VALID,0,
2014-01-09, 00:06:04,VALID,1010.02,VALID,0,VALID,104,VALID,0,VALID,24.1599,VALID,17,VALID,0,
2014-01-09, 00:07:04,VALID,1010.01,VALID,0,VALID,104,VALID,0,VALID,24.1812,VALID,17,VALID,0,
2014-01-09, 00:08:04,VALID,1010.01,VALID,0,VALID,104,VALID,0,VALID,24.1599,VALID,17,VALID,0,
2014-01-09, 00:09:04,VALID,1009.99,VALID,0,VALID,104,VALID,0,VALID,24.1617,VALID,17,VALID,0,
2014-01-09, 00:10:04,VALID,1009.95,VALID,0,VALID,104,VALID,0,VALID,24.1422,VALID,17,VALID,0,
2014-01-09, 00:11:04,VALID,1009.92,VALID,0,VALID,104,VALID,0,VALID,24.1422,VALID,17,VALID,0,
2014-01-09, 00:12:04,VALID,1009.89,VALID,0,VALID,104,VALID,0,VALID,24.1422,VALID,17,VALID,0,
2014-01-09, 00:13:04,VALID,1009.87,VALID,0,VALID,104,VALID,0,VALID,24.1422,VALID,17,VALID,0,
2014-01-09, 00:14:04,VALID,1009.82,VALID,0,VALID,104,VALID,0,VALID,24.1227,VALID,17,VALID,0,
2014-01-09, 00:15:04,VALID,1009.8,VALID,0,VALID,104,VALID,0,VALID,24.1032,VALID,17,VALID,0,
2014-01-09, 00:16:04,VALID,1009.78,VALID,0,VALID,104,VALID,0,VALID,24.0837,VALID,17,VALID,0,
2014-01-09, 00:17:04,VALID,1009.81,VALID,0,VALID,104,VALID,0,VALID,24.0643,VALID,17,VALID,0,
2014-01-09, 00:18:04,VALID,1009.77,VALID,0,VALID,104,VALID,0,VALID,24.0643,VALID,17,VALID,0,
2014-01-09, 00:19:04,VALID,1009.76,VALID,0,VALID,104,VALID,0,VALID,24.0448,VALID,16,VALID,0,
2014-01-09, 00:20:04,VALID,1009.76,VALID,0,VALID,104,VALID,0,VALID,24.0253,VALID,17,VALID,0,
2014-01-09, 00:21:04,VALID,1009.75,VALID,0,VALID,104,VALID,0,VALID,24.0253,VALID,17,VALID,0,
2014-01-09, 00:22:04,VALID,1009.73,VALID,0,VALID,104,VALID,0,VALID,24.0253,VALID,17,VALID,0,
2014-01-09, 00:23:04,VALID,1009.71,VALID,0,VALID,104,VALID,0,VALID,24.0253,VALID,17,VALID,0,
2014-01-09, 00:24:04,VALID,1009.7,VALID,0,VALID,104,VALID,0,VALID,24.0058,VALID,16,VALID,0,
2014-01-09, 00:25:04,VALID,1009.7,VALID,0,VALID,104,VALID,0,VALID,23.9845,VALID,17,VALID,0,
2014-01-09, 00:26:04,VALID,1009.67,VALID,0,VALID,104,VALID,0,VALID,23.9845,VALID,17,VALID,0,
2014-01-09, 00:27:04,VALID,1009.66,VALID,0,VALID,104,VALID,0,VALID,23.9863,VALID,16,VALID,0,
2014-01-09, 00:28:04,VALID,1009.61,VALID,0,VALID,104,VALID,0,VALID,23.9473,VALID,16,VALID,0,
2014-01-09, 00:29:04,VALID,1009.62,VALID,0,VALID,104,VALID,0,VALID,23.9278,VALID,17,VALID,0,
2014-01-09, 00:30:04,VALID,1009.63,VALID,0,VALID,104,VALID,0,VALID,23.9473,VALID,17,VALID,0,
2014-01-09, 00:31:04,VALID,1009.61,VALID,0,VALID,104,VALID,0,VALID,23.9278,VALID,16,VALID,0,
2014-01-09, 00:32:04,VALID,1009.61,VALID,0,VALID,104,VALID,0,VALID,23.9065,VALID,17,VALID,0,
2014-01-09, 00:33:04,VALID,1009.62,VALID,0,VALID,104,VALID,0,VALID,23.9084,VALID,17,VALID,0,
2014-01-09, 00:34:04,VALID,1009.64,VALID,0,VALID,104,VALID,0,VALID,23.9278,VALID,17,VALID,0,
2014-01-09, 00:35:04,VALID,1009.63,VALID,0,VALID,104,VALID,0,VALID,23.9278,VALID,17,VALID,0,
2014-01-09, 00:36:04,VALID,1009.63,VALID,0,VALID,104,VALID,0,VALID,23.8676,VALID,17,VALID,0,
2014-01-09, 00:37:04,VALID,1009.63,VALID,0,VALID,104,VALID,0,VALID,23.8889,VALID,17,VALID,0,
2014-01-09, 00:38:04,VALID,1009.63,VALID,0,VALID,104,VALID,0,VALID,23.8676,VALID,17,VALID,0,
2014-01-09, 00:39:04,VALID,1009.64,VALID,0,VALID,104,VALID,0,VALID,23.8694,VALID,17,VALID,0,
2014-01-09, 00:40:04,VALID,1009.63,VALID,0,VALID,104,VALID,0,VALID,23.8499,VALID,17,VALID,0,
2014-01-09, 00:41:04,VALID,1009.61,VALID,0,VALID,104,VALID,0,VALID,23.8694,VALID,17,VALID,0,
2014-01-09, 00:42:04,VALID,1009.61,VALID,0,VALID,104,VALID,0,VALID,23.8286,VALID,17,VALID,0,
2014-01-09, 00:43:04,VALID,1009.6,VALID,0,VALID,104,VALID,0,VALID,23.8499,VALID,17,VALID,0,
2014-01-09, 00:44:04,VALID,1009.58,VALID,0,VALID,104,VALID,0,VALID,23.8091,VALID,17,VALID,0,
2014-01-09, 00:45:04,VALID,1009.53,VALID,0,VALID,104,VALID,0,VALID,23.8109,VALID,17,VALID,0,
2014-01-09, 00:46:04,VALID,1009.5,VALID,0,VALID,104,VALID,0,VALID,23.8109,VALID,17,VALID,0,
2014-01-09, 00:47:04,VALID,1009.5,VALID,0,VALID,104,VALID,0.112112,VALID,23.8109,VALID,17,VALID,0,
2014-01-09, 00:48:04,VALID,1009.48,VALID,0,VALID,104,VALID,0,VALID,23.7896,VALID,17,VALID,0,
2014-01-09, 00:49:04,VALID,1009.48,VALID,0,VALID,104,VALID,0,VALID,23.7914,VALID,17,VALID,0,
2014-01-09, 00:50:04,VALID,1009.49,VALID,0,VALID,104,VALID,0,VALID,23.8109,VALID,17,VALID,0,
2014-01-09, 00:51:04,VALID,1009.49,VALID,0,VALID,104,VALID,0,VALID,23.8091,VALID,17,VALID,0,
2014-01-09, 00:52:04,VALID,1009.49,VALID,0,VALID,104,VALID,0,VALID,23.8109,VALID,17,VALID,0,
2014-01-09, 00:53:04,VALID,1009.47,VALID,0,VALID,104,VALID,0,VALID,23.8109,VALID,17,VALID,0,
2014-01-09, 00:54:04,VALID,1009.48,VALID,0,VALID,104,VALID,0,VALID,23.7914,VALID,17,VALID,0,
2014-01-09, 00:55:04,VALID,1009.49,VALID,0,VALID,104,VALID,0,VALID,23.772,VALID,17,VALID,0,
2014-01-09, 00:56:04,VALID,1009.48,VALID,0,VALID,104,VALID,0.112112,VALID,23.7914,VALID,17,VALID,0,
2014-01-09, 00:57:04,VALID,1009.49,VALID,0,VALID,104,VALID,0,VALID,23.772,VALID,17,VALID,0,
2014-01-09, 00:58:04,VALID,1009.5,VALID,0,VALID,104,VALID,0,VALID,23.7525,VALID,17,VALID,0,
2014-01-09, 00:59:04,VALID,1009.46,VALID,0,VALID,104,VALID,0,VALID,23.733,VALID,17,VALID,0,
2014-01-09, 01:00:04,VALID,1009.44,VALID,0,VALID,104,VALID,0,VALID,23.7117,VALID,17,VALID,0,
2014-01-09, 01:01:04,VALID,1009.46,VALID,0,VALID,104,VALID,0,VALID,23.7135,VALID,17,VALID,0,
2014-01-09, 01:02:04,VALID,1009.42,VALID,0,VALID,104,VALID,0.112112,VALID,23.7135,VALID,17,VALID,0,
2014-01-09, 01:03:04,VALID,1009.42,VALID,0,VALID,104,VALID,0,VALID,23.7135,VALID,17,VALID,0,
2014-01-09, 01:04:04,VALID,1009.4,VALID,0,VALID,104,VALID,0,VALID,23.733,VALID,17,VALID,0,
2014-01-09, 01:05:04,VALID,1009.37,VALID,0,VALID,104,VALID,0,VALID,23.7135,VALID,17,VALID,0,
2014-01-09, 01:06:04,VALID,1009.38,VALID,0,VALID,104,VALID,0,VALID,23.733,VALID,17,VALID,0,
2014-01-09, 01:07:04,VALID,1009.36,VALID,0,VALID,104,VALID,0,VALID,23.733,VALID,17,VALID,0,
2014-01-09, 01:08:04,VALID,1009.3,VALID,0,VALID,104,VALID,0,VALID,23.6922,VALID,17,VALID,0,
2014-01-09, 01:09:04,VALID,1009.29,VALID,0,VALID,104,VALID,0,VALID,23.733,VALID,17,VALID,0,
2014-01-09, 01:10:04,VALID,1009.27,VALID,0,VALID,104,VALID,0.112112,VALID,23.7117,VALID,17,VALID,0,
2014-01-09, 01:11:04,VALID,1009.27,VALID,0,VALID,104,VALID,0,VALID,23.6922,VALID,17,VALID,0,
2014-01-09, 01:12:04,VALID,1009.23,VALID,0,VALID,104,VALID,0,VALID,23.7135,VALID,17,VALID,0,
2014-01-09, 01:13:04,VALID,1009.23,VALID,0,VALID,104,VALID,0,VALID,23.6922,VALID,17,VALID,0,
2014-01-09, 01:14:04,VALID,1009.17,VALID,0,VALID,104,VALID,0,VALID,23.733,VALID,17,VALID,0,
2014-01-09, 01:15:04,VALID,1009.19,VALID,0,VALID,104,VALID,0,VALID,23.7117,VALID,17,VALID,0,
2014-01-09, 01:16:04,VALID,1009.14,VALID,0,VALID,104,VALID,0,VALID,23.7525,VALID,17,VALID,0,
2014-01-09, 01:17:04,VALID,1009.12,VALID,0,VALID,104,VALID,0,VALID,23.7507,VALID,16,VALID,0,
2014-01-09, 01:18:04,VALID,1009.1,VALID,0,VALID,104,VALID,0,VALID,23.7701,VALID,17,VALID,0,
2014-01-09, 01:19:04,VALID,1009.07,VALID,0,VALID,104,VALID,0,VALID,23.7701,VALID,17,VALID,0,
2014-01-09, 01:20:04,VALID,1009.07,VALID,0,VALID,104,VALID,0,VALID,23.7914,VALID,17,VALID,0,
2014-01-09, 01:21:04,VALID,1009.05,VALID,0,VALID,104,VALID,0,VALID,23.7914,VALID,16,VALID,0,
2014-01-09, 01:22:04,VALID,1009.07,VALID,0,VALID,104,VALID,0,VALID,23.8109,VALID,17,VALID,0,
2014-01-09, 01:23:04,VALID,1009.03,VALID,0,VALID,104,VALID,0,VALID,23.7914,VALID,17,VALID,0,
2014-01-09, 01:24:04,VALID,1009.01,VALID,0,VALID,104,VALID,0,VALID,23.8109,VALID,17,VALID,0,
2014-01-09, 01:25:04,VALID,1009.03,VALID,0,VALID,104,VALID,0,VALID,23.8109,VALID,17,VALID,0,
2014-01-09, 01:26:04,VALID,1009.04,VALID,0,VALID,104,VALID,0,VALID,23.8109,VALID,17,VALID,0,
2014-01-09, 01:27:04,VALID,1009.03,VALID,0,VALID,104,VALID,0,VALID,23.8109,VALID,17,VALID,0,
2014-01-09, 01:28:04,VALID,1009.06,VALID,0,VALID,104,VALID,0,VALID,23.7914,VALID,17,VALID,0,
2014-01-09, 01:29:04,VALID,1009.05,VALID,0,VALID,104,VALID,0,VALID,23.772,VALID,17,VALID,0,
2014-01-09, 01:30:04,VALID,1009.07,VALID,0,VALID,104,VALID,0,VALID,23.772,VALID,17,VALID,0,
2014-01-09, 01:31:04,VALID,1009.04,VALID,0,VALID,104,VALID,0,VALID,23.7525,VALID,17,VALID,0,
2014-01-09, 01:32:04,VALID,1009.05,VALID,0,VALID,104,VALID,0,VALID,23.7507,VALID,17,VALID,0,
2014-01-09, 01:33:04,VALID,1009,VALID,0,VALID,104,VALID,0,VALID,23.7312,VALID,17,VALID,0,
2014-01-09, 01:34:04,VALID,1008.98,VALID,0,VALID,104,VALID,0,VALID,23.7525,VALID,17,VALID,0,
2014-01-09, 01:35:04,VALID,1008.94,VALID,0,VALID,104,VALID,0,VALID,23.733,VALID,17,VALID,0,
2014-01-09, 01:36:04,VALID,1008.95,VALID,0,VALID,104,VALID,0,VALID,23.7135,VALID,17,VALID,0,
2014-01-09, 01:37:04,VALID,1008.91,VALID,0,VALID,104,VALID,0,VALID,23.6727,VALID,17,VALID,0,
2014-01-09, 01:38:04,VALID,1008.9,VALID,0,VALID,104,VALID,0,VALID,23.694,VALID,17,VALID,0,
2014-01-09, 01:39:04,VALID,1008.87,VALID,0,VALID,104,VALID,0.112112,VALID,23.6727,VALID,17,VALID,0,
2014-01-09, 01:40:04,VALID,1008.83,VALID,0,VALID,104,VALID,0,VALID,23.6745,VALID,17,VALID,0,
2014-01-09, 01:41:04,VALID,1008.83,VALID,0,VALID,104,VALID,0,VALID,23.6745,VALID,17,VALID,0,
2014-01-09, 01:42:04,VALID,1008.79,VALID,0,VALID,104,VALID,0,VALID,23.694,VALID,17,VALID,0,
2014-01-09, 01:43:04,VALID,1008.78,VALID,0,VALID,104,VALID,0,VALID,23.7135,VALID,17,VALID,0,
2014-01-09, 01:44:04,VALID,1008.81,VALID,0,VALID,104,VALID,0,VALID,23.7117,VALID,17,VALID,0,
2014-01-09, 01:45:04,VALID,1008.79,VALID,0,VALID,104,VALID,0,VALID,23.733,VALID,17,VALID,0,
2014-01-09, 01:46:04,VALID,1008.79,VALID,0,VALID,104,VALID,0,VALID,23.7525,VALID,17,VALID,0,
2014-01-09, 01:47:04,VALID,1008.77,VALID,0,VALID,104,VALID,0,VALID,23.7525,VALID,17,VALID,0,
2014-01-09, 01:48:04,VALID,1008.77,VALID,0,VALID,104,VALID,0,VALID,23.733,VALID,17,VALID,0,
2014-01-09, 01:49:04,VALID,1008.75,VALID,0,VALID,104,VALID,0,VALID,23.7135,VALID,17,VALID,0,
2014-01-09, 01:50:04,VALID,1008.74,VALID,0,VALID,104,VALID,0,VALID,23.7135,VALID,17,VALID,0,
2014-01-09, 01:51:04,VALID,1008.74,VALID,0,VALID,104,VALID,0,VALID,23.694,VALID,17,VALID,0,
2014-01-09, 01:52:04,VALID,1008.75,VALID,0,VALID,104,VALID,0,VALID,23.6745,VALID,17,VALID,0,
2014-01-09, 01:53:04,VALID,1008.72,VALID,0,VALID,104,VALID,0,VALID,23.6745,VALID,17,VALID,0,
2014-01-09, 01:54:04,VALID,1008.73,VALID,0,VALID,104,VALID,0.112112,VALID,23.655,VALID,17,VALID,0,
2014-01-09, 01:55:04,VALID,1008.7,VALID,0,VALID,104,VALID,0,VALID,23.6356,VALID,17,VALID,0,
2014-01-09, 01:56:04,VALID,1008.68,VALID,0,VALID,104,VALID,0,VALID,23.6161,VALID,17,VALID,0,
2014-01-09, 01:57:04,VALID,1008.66,VALID,0,VALID,104,VALID,0,VALID,23.6161,VALID,17,VALID,0,
2014-01-09, 01:58:04,VALID,1008.66,VALID,0,VALID,104,VALID,0,VALID,23.6356,VALID,17,VALID,0,
2014-01-09, 01:59:04,VALID,1008.64,VALID,0,VALID,104,VALID,0,VALID,23.6356,VALID,17,VALID,0,
2014-01-09, 02:00:04,VALID,1008.62,VALID,0,VALID,104,VALID,0,VALID,23.6356,VALID,17,VALID,0,
2014-01-09, 02:01:04,VALID,1008.64,VALID,0,VALID,104,VALID,0,VALID,23.6161,VALID,17,VALID,0,
2014-01-09, 02:02:04,VALID,1008.62,VALID,0,VALID,104,VALID,0,VALID,23.6161,VALID,17,VALID,0,
2014-01-09, 02:03:04,VALID,1008.64,VALID,0,VALID,104,VALID,0,VALID,23.5771,VALID,17,VALID,0,
2014-01-09, 02:04:04,VALID,1008.63,VALID,0,VALID,104,VALID,0,VALID,23.5771,VALID,17,VALID,0,
2014-01-09, 02:05:04,VALID,1008.62,VALID,0,VALID,104,VALID,0,VALID,23.5771,VALID,17,VALID,0,
2014-01-09, 02:06:04,VALID,1008.6,VALID,0,VALID,104,VALID,0,VALID,23.5576,VALID,16,VALID,0,
2014-01-09, 02:07:04,VALID,1008.58,VALID,0,VALID,104,VALID,0,VALID,23.5381,VALID,17,VALID,0,
2014-01-09, 02:08:04,VALID,1008.56,VALID,0,VALID,104,VALID,0,VALID,23.5381,VALID,17,VALID,0,
2014-01-09, 02:09:04,VALID,1008.55,VALID,0,VALID,104,VALID,0.112112,VALID,23.5186,VALID,17,VALID,0,
2014-01-09, 02:10:04,VALID,1008.55,VALID,0,VALID,104,VALID,0,VALID,23.4992,VALID,17,VALID,0,
2014-01-09, 02:11:04,VALID,1008.54,VALID,0,VALID,104,VALID,0,VALID,23.4992,VALID,17,VALID,0,
2014-01-09, 02:12:04,VALID,1008.53,VALID,0,VALID,104,VALID,0,VALID,23.4797,VALID,17,VALID,0,
2014-01-09, 02:13:04,VALID,1008.53,VALID,0,VALID,104,VALID,0,VALID,23.4797,VALID,17,VALID,0,
2014-01-09, 02:14:04,VALID,1008.52,VALID,0,VALID,104,VALID,0,VALID,23.4602,VALID,17,VALID,0,
2014-01-09, 02:15:04,VALID,1008.54,VALID,0,VALID,104,VALID,0,VALID,23.4407,VALID,17,VALID,0,
2014-01-09, 02:16:04,VALID,1008.52,VALID,0,VALID,104,VALID,0,VALID,23.4212,VALID,17,VALID,0,
2014-01-09, 02:17:04,VALID,1008.56,VALID,0,VALID,104,VALID,0,VALID,23.4017,VALID,17,VALID,0,
2014-01-09, 02:18:04,VALID,1008.54,VALID,0,VALID,104,VALID,0,VALID,23.4017,VALID,17,VALID,0,
2014-01-09, 02:19:04,VALID,1008.54,VALID,0,VALID,104,VALID,0,VALID,23.4017,VALID,17,VALID,0,
2014-01-09, 02:20:04,VALID,1008.57,VALID,0,VALID,104,VALID,0,VALID,23.4017,VALID,17,VALID,0,
2014-01-09, 02:21:04,VALID,1008.57,VALID,0,VALID,104,VALID,0,VALID,23.4017,VALID,17,VALID,0,
2014-01-09, 02:22:04,VALID,1008.57,VALID,0,VALID,104,VALID,0,VALID,23.4017,VALID,17,VALID,0,
2014-01-09, 02:23:04,VALID,1008.57,VALID,0,VALID,104,VALID,0,VALID,23.4017,VALID,17,VALID,0,
2014-01-09, 02:24:04,VALID,1008.6,VALID,0,VALID,104,VALID,0,VALID,23.4017,VALID,17,VALID,0,
2014-01-09, 02:25:04,VALID,1008.6,VALID,0,VALID,104,VALID,0,VALID,23.4017,VALID,17,VALID,0,
2014-01-09, 02:26:04,VALID,1008.62,VALID,0,VALID,104,VALID,0,VALID,23.3805,VALID,17,VALID,0,
2014-01-09, 02:27:04,VALID,1008.6,VALID,0,VALID,104,VALID,0,VALID,23.4212,VALID,17,VALID,0,
2014-01-09, 02:28:04,VALID,1008.6,VALID,0,VALID,104,VALID,0,VALID,23.4212,VALID,17,VALID,0,
2014-01-09, 02:29:04,VALID,1008.58,VALID,0,VALID,104,VALID,0,VALID,23.4407,VALID,17,VALID,0,
2014-01-09, 02:30:04,VALID,1008.6,VALID,0,VALID,104,VALID,0,VALID,23.4602,VALID,17,VALID,0,
2014-01-09, 02:31:04,VALID,1008.61,VALID,0,VALID,104,VALID,0,VALID,23.4602,VALID,17,VALID,0,
2014-01-09, 02:32:04,VALID,1008.6,VALID,0,VALID,104,VALID,0,VALID,23.4797,VALID,17,VALID,0,
2014-01-09, 02:33:04,VALID,1008.6,VALID,0,VALID,104,VALID,0,VALID,23.4797,VALID,17,VALID,0,
2014-01-09, 02:34:04,VALID,1008.59,VALID,0,VALID,104,VALID,0,VALID,23.4992,VALID,17,VALID,0,
2014-01-09, 02:35:04,VALID,1008.59,VALID,0,VALID,104,VALID,0,VALID,23.4992,VALID,17,VALID,0,
2014-01-09, 02:36:04,VALID,1008.58,VALID,0,VALID,104,VALID,0,VALID,23.5009,VALID,17,VALID,0,
2014-01-09, 02:37:04,VALID,1008.58,VALID,0,VALID,104,VALID,0,VALID,23.4992,VALID,17,VALID,0,
2014-01-09, 02:38:04,VALID,1008.58,VALID,0,VALID,104,VALID,0,VALID,23.4992,VALID,17,VALID,0,
2014-01-09, 02:39:04,VALID,1008.57,VALID,0,VALID,104,VALID,0,VALID,23.4992,VALID,17,VALID,0,
2014-01-09, 02:40:04,VALID,1008.55,VALID,0,VALID,104,VALID,0,VALID,23.5186,VALID,17,VALID,0,
2014-01-09, 02:41:04,VALID,1008.54,VALID,0,VALID,104,VALID,0,VALID,23.5381,VALID,17,VALID,0,
2014-01-09, 02:42:04,VALID,1008.55,VALID,0,VALID,104,VALID,0,VALID,23.4974,VALID,17,VALID,0,
2014-01-09, 02:43:04,VALID,1008.54,VALID,0,VALID,104,VALID,0,VALID,23.4992,VALID,17,VALID,0,
2014-01-09, 02:44:04,VALID,1008.55,VALID,0,VALID,104,VALID,0,VALID,23.5204,VALID,17,VALID,0,
2014-01-09, 02:45:04,VALID,1008.6,VALID,0,VALID,104,VALID,0,VALID,23.4602,VALID,17,VALID,0,
2014-01-09, 02:46:04,VALID,1008.61,VALID,0,VALID,104,VALID,0,VALID,23.4602,VALID,17,VALID,0,
2014-01-09, 02:47:04,VALID,1008.62,VALID,0,VALID,104,VALID,0,VALID,23.4407,VALID,17,VALID,0,
2014-01-09, 02:48:04,VALID,1008.63,VALID,0,VALID,104,VALID,0,VALID,23.4407,VALID,17,VALID,0,
2014-01-09, 02:49:04,VALID,1008.62,VALID,0,VALID,104,VALID,0,VALID,23.4212,VALID,17,VALID,0,
2014-01-09, 02:50:04,VALID,1008.65,VALID,0,VALID,104,VALID,0,VALID,23.3823,VALID,17,VALID,0,
2014-01-09, 02:51:04,VALID,1008.67,VALID,0,VALID,104,VALID,0,VALID,23.3628,VALID,17,VALID,0,
2014-01-09, 02:52:04,VALID,1008.69,VALID,0,VALID,104,VALID,0,VALID,23.3433,VALID,17,VALID,0,
2014-01-09, 02:53:04,VALID,1008.67,VALID,0,VALID,104,VALID,0,VALID,23.3238,VALID,17,VALID,0,
2014-01-09, 02:54:04,VALID,1008.69,VALID,0,VALID,104,VALID,0,VALID,23.3043,VALID,17,VALID,0,
2014-01-09, 02:55:04,VALID,1008.68,VALID,0,VALID,104,VALID,0,VALID,23.3043,VALID,17,VALID,0,
2014-01-09, 02:56:04,VALID,1008.67,VALID,0,VALID,104,VALID,0,VALID,23.2848,VALID,17,VALID,0,
2014-01-09, 02:57:04,VALID,1008.66,VALID,0,VALID,104,VALID,0,VALID,23.2654,VALID,17,VALID,0,
2014-01-09, 02:58:04,VALID,1008.7,VALID,0,VALID,104,VALID,0,VALID,23.2441,VALID,17,VALID,0,
2014-01-09, 02:59:04,VALID,1008.68,VALID,0,VALID,104,VALID,0,VALID,23.2654,VALID,17,VALID,0,
2014-01-09, 03:00:04,VALID,1008.67,VALID,0,VALID,104,VALID,0,VALID,23.2848,VALID,17,VALID,0,
2014-01-09, 03:01:04,VALID,1008.63,VALID,0,VALID,104,VALID,0,VALID,23.2848,VALID,17,VALID,0,
2014-01-09, 03:02:04,VALID,1008.66,VALID,0,VALID,104,VALID,0,VALID,23.3043,VALID,17,VALID,0,
2014-01-09, 03:03:04,VALID,1008.66,VALID,0,VALID,104,VALID,0,VALID,23.3433,VALID,17,VALID,0,
2014-01-09, 03:04:04,VALID,1008.62,VALID,0,VALID,104,VALID,0,VALID,23.3628,VALID,17,VALID,0,
2014-01-09, 03:05:04,VALID,1008.64,VALID,0,VALID,104,VALID,0,VALID,23.4017,VALID,17,VALID,0,
2014-01-09, 03:06:04,VALID,1008.63,VALID,0,VALID,104,VALID,0,VALID,23.4017,VALID,17,VALID,0,
2014-01-09, 03:07:04,VALID,1008.66,VALID,0,VALID,104,VALID,0,VALID,23.4017,VALID,17,VALID,0,
2014-01-09, 03:08:05,VALID,1008.65,VALID,0,VALID,104,VALID,0,VALID,23.4212,VALID,17,VALID,0,
2014-01-09, 03:09:05,VALID,1008.67,VALID,0,VALID,104,VALID,0,VALID,23.4212,VALID,17,VALID,0,
2014-01-09, 03:10:05,VALID,1008.7,VALID,0,VALID,104,VALID,0,VALID,23.4017,VALID,17,VALID,0,
2014-01-09, 03:11:05,VALID,1008.68,VALID,0,VALID,104,VALID,0,VALID,23.4212,VALID,17,VALID,0,
2014-01-09, 03:12:05,VALID,1008.73,VALID,0,VALID,104,VALID,0,VALID,23.3805,VALID,17,VALID,0,
2014-01-09, 03:13:05,VALID,1008.72,VALID,0,VALID,104,VALID,0,VALID,23.3823,VALID,17,VALID,0,
2014-01-09, 03:14:05,VALID,1008.73,VALID,0,VALID,104,VALID,0,VALID,23.3823,VALID,17,VALID,0,
2014-01-09, 03:15:05,VALID,1008.72,VALID,0,VALID,104,VALID,0,VALID,23.3628,VALID,17,VALID,0,
2014-01-09, 03:16:05,VALID,1008.72,VALID,0,VALID,104,VALID,0,VALID,23.3628,VALID,17,VALID,0,
2014-01-09, 03:17:05,VALID,1008.7,VALID,0,VALID,104,VALID,0,VALID,23.3433,VALID,17,VALID,0,
2014-01-09, 03:18:05,VALID,1008.74,VALID,0,VALID,104,VALID,0,VALID,23.3238,VALID,17,VALID,0,
2014-01-09, 03:19:05,VALID,1008.73,VALID,0,VALID,104,VALID,0,VALID,23.2636,VALID,17,VALID,0,
2014-01-09, 03:20:05,VALID,1008.72,VALID,0,VALID,104,VALID,0,VALID,23.2654,VALID,17,VALID,0,
2014-01-09, 03:21:05,VALID,1008.72,VALID,0,VALID,104,VALID,0.112112,VALID,23.2654,VALID,17,VALID,0,
2014-01-09, 03:22:05,VALID,1008.72,VALID,0,VALID,104,VALID,0,VALID,23.2654,VALID,17,VALID,0,
2014-01-09, 03:23:05,VALID,1008.73,VALID,0,VALID,104,VALID,0,VALID,23.2459,VALID,17,VALID,0,
2014-01-09, 03:24:05,VALID,1008.77,VALID,0,VALID,104,VALID,0,VALID,23.2654,VALID,17,VALID,0,
2014-01-09, 03:25:05,VALID,1008.73,VALID,0,VALID,104,VALID,0,VALID,23.2636,VALID,17,VALID,0,
2014-01-09, 03:26:05,VALID,1008.69,VALID,0,VALID,104,VALID,0,VALID,23.3043,VALID,17,VALID,0,
2014-01-09, 03:27:05,VALID,1008.69,VALID,0,VALID,104,VALID,0,VALID,23.3238,VALID,17,VALID,0,
2014-01-09, 03:28:05,VALID,1008.67,VALID,0,VALID,104,VALID,0,VALID,23.3238,VALID,17,VALID,0,
2014-01-09, 03:29:05,VALID,1008.68,VALID,0,VALID,104,VALID,0,VALID,23.3238,VALID,17,VALID,0,
2014-01-09, 03:30:05,VALID,1008.7,VALID,0,VALID,104,VALID,0,VALID,23.3238,VALID,17,VALID,0,
2014-01-09, 03:31:05,VALID,1008.72,VALID,0,VALID,104,VALID,0,VALID,23.3238,VALID,17,VALID,0,
2014-01-09, 03:32:05,VALID,1008.72,VALID,0,VALID,104,VALID,0,VALID,23.3238,VALID,17,VALID,0,
2014-01-09, 03:33:05,VALID,1008.7,VALID,0,VALID,104,VALID,0.112112,VALID,23.3026,VALID,17,VALID,0,
2014-01-09, 03:34:05,VALID,1008.7,VALID,0,VALID,104,VALID,0,VALID,23.3238,VALID,17,VALID,0,
2014-01-09, 03:35:05,VALID,1008.69,VALID,0,VALID,104,VALID,0,VALID,23.3433,VALID,17,VALID,0,
2014-01-09, 03:36:05,VALID,1008.66,VALID,0,VALID,104,VALID,0,VALID,23.3628,VALID,17,VALID,0,
2014-01-09, 03:37:05,VALID,1008.65,VALID,0,VALID,104,VALID,0,VALID,23.3628,VALID,17,VALID,0,
2014-01-09, 03:38:05,VALID,1008.63,VALID,0,VALID,104,VALID,0,VALID,23.3823,VALID,17,VALID,0,
2014-01-09, 03:39:05,VALID,1008.6,VALID,0,VALID,104,VALID,0.112112,VALID,23.3823,VALID,17,VALID,0,
2014-01-09, 03:40:05,VALID,1008.59,VALID,0,VALID,104,VALID,0,VALID,23.4017,VALID,17,VALID,0,
2014-01-09, 03:41:05,VALID,1008.61,VALID,0,VALID,104,VALID,0,VALID,23.4,VALID,17,VALID,0,
2014-01-09, 03:42:05,VALID,1008.6,VALID,0,VALID,104,VALID,0,VALID,23.4407,VALID,17,VALID,0,
2014-01-09, 03:43:05,VALID,1008.62,VALID,0,VALID,104,VALID,0,VALID,23.4797,VALID,17,VALID,0,
2014-01-09, 03:44:05,VALID,1008.64,VALID,0,VALID,104,VALID,0,VALID,23.4992,VALID,17,VALID,0,
2014-01-09, 03:45:05,VALID,1008.66,VALID,0,VALID,104,VALID,0,VALID,23.4779,VALID,17,VALID,0,
2014-01-09, 03:46:05,VALID,1008.66,VALID,0,VALID,104,VALID,0.112112,VALID,23.4797,VALID,17,VALID,0,
2014-01-09, 03:47:05,VALID,1008.68,VALID,0,VALID,104,VALID,0,VALID,23.4584,VALID,17,VALID,0,
2014-01-09, 03:48:05,VALID,1008.67,VALID,0,VALID,104,VALID,0,VALID,23.4584,VALID,17,VALID,0,
2014-01-09, 03:49:05,VALID,1008.68,VALID,0,VALID,104,VALID,0.112112,VALID,23.4389,VALID,17,VALID,0,
2014-01-09, 03:50:05,VALID,1008.7,VALID,0,VALID,104,VALID,0,VALID,23.4602,VALID,17,VALID,0,
2014-01-09, 03:51:05,VALID,1008.68,VALID,0,VALID,104,VALID,0,VALID,23.4407,VALID,17,VALID,0,
2014-01-09, 03:52:05,VALID,1008.73,VALID,0,VALID,104,VALID,0.112112,VALID,23.4602,VALID,17,VALID,0,
2014-01-09, 03:53:05,VALID,1008.76,VALID,0,VALID,104,VALID,0.112112,VALID,23.4797,VALID,17,VALID,0,
2014-01-09, 03:54:05,VALID,1008.74,VALID,0,VALID,104,VALID,0.112112,VALID,23.4584,VALID,17,VALID,0,
2014-01-09, 03:55:05,VALID,1008.73,VALID,0,VALID,104,VALID,0,VALID,23.4602,VALID,17,VALID,0,
2014-01-09, 03:56:05,VALID,1008.75,VALID,0,VALID,104,VALID,0,VALID,23.4602,VALID,17,VALID,0,
2014-01-09, 03:57:05,VALID,1008.73,VALID,0,VALID,104,VALID,0,VALID,23.4602,VALID,17,VALID,0,
2014-01-09, 03:58:05,VALID,1008.74,VALID,0,VALID,104,VALID,0,VALID,23.4194,VALID,17,VALID,0,
2014-01-09, 03:59:05,VALID,1008.71,VALID,0,VALID,104,VALID,0.112112,VALID,23.4407,VALID,17,VALID,0,
2014-01-09, 04:00:05,VALID,1008.73,VALID,0,VALID,104,VALID,0,VALID,23.4212,VALID,17,VALID,0,
2014-01-09, 04:01:05,VALID,1008.76,VALID,0,VALID,104,VALID,0,VALID,23.4212,VALID,17,VALID,0,
2014-01-09, 04:02:05,VALID,1008.7,VALID,0,VALID,104,VALID,0,VALID,23.4212,VALID,17,VALID,0,
2014-01-09, 04:03:05,VALID,1008.74,VALID,0,VALID,104,VALID,0,VALID,23.4,VALID,17,VALID,0,
2014-01-09, 04:04:05,VALID,1008.71,VALID,0,VALID,104,VALID,0.112112,VALID,23.4212,VALID,17,VALID,0,
2014-01-09, 04:05:05,VALID,1008.7,VALID,0,VALID,104,VALID,0,VALID,23.4407,VALID,17,VALID,0,
2014-01-09, 04:06:05,VALID,1008.72,VALID,0,VALID,104,VALID,0,VALID,23.4407,VALID,17,VALID,0,
2014-01-09, 04:07:05,VALID,1008.71,VALID,0,VALID,104,VALID,0,VALID,23.4779,VALID,17,VALID,0,
2014-01-09, 04:08:05,VALID,1008.74,VALID,0,VALID,104,VALID,0,VALID,23.5381,VALID,17,VALID,0,
2014-01-09, 04:09:05,VALID,1008.75,VALID,0,VALID,104,VALID,0,VALID,23.5363,VALID,65,VALID,0,
2014-01-09, 04:10:05,VALID,1008.75,VALID,0,VALID,104,VALID,0,VALID,23.5363,VALID,73,VALID,0,
2014-01-09, 04:11:05,VALID,1008.74,VALID,0,VALID,104,VALID,0,VALID,23.5771,VALID,73,VALID,0,